Starlink 11197

operational
NORAD ID: 60186 Int'l Des: 2024-124 Owner: SPXS Country: US Constellation: starlink
LEOCIRCULAR

About Starlink 11197

Description loading...

Live Position

Loading 3D Globe...

Upcoming Passes

Altitude History

Altitude vs Time

uPlot chart will show altitude changes over time

Two-Line Element Set

1 60186U 24124D 25310.65594925 .00004996 00000-0 46050-4 0 9997
2 60186 53.1591 47.5197 0001233 77.0382 283.0774 15.69723612 77216
Epoch: Nov 6, 2025 • Age: 24 hours

Current Status

Altitude 360.6 km
Velocity 7.70 km/s
Sub-Earth Point 27.62°N, 76.49°W
Launch Date Jul 3, 2024
Age 1.3 years
Type internet

Technical Details

Classification Payload
Mass 960.00 kg
Dry Mass 910.00 kg
Total Mass 960.00 kg
Length 0.30 m
Diameter 4.10 m
Span 29.00 m
Shape Box + pan
Manufacturer SPXS
Bus Type Starlink V2MD
Phase Status In Orbit
Owner/State SPXS/US

Large Constellations

Loading constellations...